Year,Month,Day,Hour,Minute,Value (Times are PST for temperature in C)
2021,03,29,11,08,7.90
2021,03,29,11,09,7.90
2021,03,29,11,10,7.90
2021,03,29,11,11,7.90
2021,03,29,11,12,7.90
2021,03,29,11,13,7.80
2021,03,29,11,14,7.90
2021,03,29,11,15,7.80
2021,03,29,11,16,7.80
2021,03,29,11,17,7.80
2021,03,29,11,18,7.80
2021,03,29,11,19,7.80
2021,03,29,11,20,7.80
2021,03,29,11,21,7.80
2021,03,29,11,22,7.80
2021,03,29,11,23,7.80
2021,03,29,11,24,7.80
2021,03,29,11,25,7.80
2021,03,29,11,26,7.80
2021,03,29,11,27,7.80
2021,03,29,11,28,7.90
2021,03,29,11,29,7.90
2021,03,29,11,30,7.80
2021,03,29,11,31,7.80
2021,03,29,11,32,7.80
2021,03,29,11,33,7.80
2021,03,29,11,34,7.90
2021,03,29,11,35,8.00
2021,03,29,11,36,8.00
2021,03,29,11,37,8.00
2021,03,29,11,38,8.10
2021,03,29,11,39,8.20
2021,03,29,11,40,8.20
2021,03,29,11,41,8.30
2021,03,29,11,42,8.30
2021,03,29,11,43,8.40
2021,03,29,11,44,8.50
2021,03,29,11,45,8.40
2021,03,29,11,46,8.20
2021,03,29,11,47,8.10
2021,03,29,11,48,8.10
2021,03,29,11,49,8.20
2021,03,29,11,50,8.30
2021,03,29,11,51,8.40
2021,03,29,11,52,8.40
2021,03,29,11,53,8.40
2021,03,29,11,54,8.40
2021,03,29,11,55,8.30
2021,03,29,11,56,8.40
2021,03,29,11,57,8.50
2021,03,29,11,58,8.50
2021,03,29,11,59,8.70
2021,03,29,12,00,8.80
2021,03,29,12,01,8.90
2021,03,29,12,02,8.90
2021,03,29,12,03,9.00
2021,03,29,12,04,9.00
2021,03,29,12,05,9.10
2021,03,29,12,06,9.10
2021,03,29,12,07,9.10
2021,03,29,12,08,9.10
2021,03,29,12,09,9.10
2021,03,29,12,10,9.10
2021,03,29,12,11,9.10
2021,03,29,12,12,9.10
2021,03,29,12,13,9.00
2021,03,29,12,14,8.90
2021,03,29,12,15,9.00
2021,03,29,12,16,9.10
2021,03,29,12,17,9.20
2021,03,29,12,18,9.30
2021,03,29,12,19,9.30
2021,03,29,12,20,9.20
2021,03,29,12,21,9.20
2021,03,29,12,22,9.20
2021,03,29,12,23,9.20
2021,03,29,12,24,9.20
2021,03,29,12,25,9.20
2021,03,29,12,26,9.10
2021,03,29,12,27,9.10
2021,03,29,12,28,9.00
2021,03,29,12,29,8.90
2021,03,29,12,30,8.80
2021,03,29,12,31,8.80
2021,03,29,12,32,8.70
2021,03,29,12,33,8.50
2021,03,29,12,34,8.50
2021,03,29,12,35,8.40
2021,03,29,12,36,8.40
2021,03,29,12,37,8.50
2021,03,29,12,38,8.50
2021,03,29,12,39,8.60
2021,03,29,12,40,8.70
2021,03,29,12,41,8.80
2021,03,29,12,42,8.90
2021,03,29,12,43,9.00
2021,03,29,12,44,9.00
2021,03,29,12,45,9.10
2021,03,29,12,46,9.20
2021,03,29,12,47,9.30
2021,03,29,12,48,9.40
2021,03,29,12,49,9.60
2021,03,29,12,50,9.70
2021,03,29,12,51,9.70
2021,03,29,12,52,9.60
2021,03,29,12,53,9.50
2021,03,29,12,54,9.50
2021,03,29,12,55,9.50
2021,03,29,12,56,9.40
2021,03,29,12,57,9.40
2021,03,29,12,58,9.50
2021,03,29,12,59,9.60
2021,03,29,13,00,9.60
2021,03,29,13,01,9.60
2021,03,29,13,02,9.70
2021,03,29,13,03,9.70
2021,03,29,13,04,9.70
2021,03,29,13,05,9.70
2021,03,29,13,06,9.70
2021,03,29,13,07,9.80
2021,03,29,13,08,9.80
2021,03,29,13,09,9.80
2021,03,29,13,10,9.90
2021,03,29,13,11,10.00
2021,03,29,13,12,10.00
2021,03,29,13,13,10.00
2021,03,29,13,14,9.90
2021,03,29,13,15,9.90
2021,03,29,13,16,9.70
2021,03,29,13,17,9.70
2021,03,29,13,18,9.80
2021,03,29,13,19,9.80
2021,03,29,13,20,9.80
2021,03,29,13,21,9.70
2021,03,29,13,22,9.70
2021,03,29,13,23,9.70
2021,03,29,13,24,9.70
2021,03,29,13,25,9.80
2021,03,29,13,26,9.80
2021,03,29,13,27,9.90
2021,03,29,13,28,10.00
2021,03,29,13,29,10.10
2021,03,29,13,30,10.00
2021,03,29,13,31,9.90
2021,03,29,13,32,9.80
2021,03,29,13,33,9.70
2021,03,29,13,34,9.70
2021,03,29,13,35,9.80
2021,03,29,13,36,9.80
2021,03,29,13,37,9.90
2021,03,29,13,38,10.00
2021,03,29,13,39,10.20
2021,03,29,13,40,10.20
2021,03,29,13,41,10.30
2021,03,29,13,42,10.30
2021,03,29,13,43,10.30
2021,03,29,13,44,10.40
2021,03,29,13,45,10.30
2021,03,29,13,46,10.30
2021,03,29,13,47,10.20
2021,03,29,13,48,10.10
2021,03,29,13,49,9.90
2021,03,29,13,50,9.80
2021,03,29,13,51,9.90
2021,03,29,13,52,10.10
2021,03,29,13,53,10.20
2021,03,29,13,54,10.30
2021,03,29,13,55,10.20
2021,03,29,13,56,10.10
2021,03,29,13,57,10.20
2021,03,29,13,58,10.30
2021,03,29,13,59,10.40
2021,03,29,14,00,10.60
2021,03,29,14,01,10.60
2021,03,29,14,02,10.40
2021,03,29,14,03,10.20
2021,03,29,14,04,10.10
2021,03,29,14,05,10.00
2021,03,29,14,06,10.00
2021,03,29,14,07,10.10
2021,03,29,14,08,10.00
2021,03,29,14,09,10.00
2021,03,29,14,10,10.10
2021,03,29,14,11,10.20
2021,03,29,14,12,10.30
2021,03,29,14,13,10.40
2021,03,29,14,14,10.50
2021,03,29,14,15,10.60
2021,03,29,14,16,10.70
2021,03,29,14,17,10.70
2021,03,29,14,18,10.60
2021,03,29,14,19,10.50
2021,03,29,14,20,10.50
2021,03,29,14,21,10.50
2021,03,29,14,22,10.40
2021,03,29,14,23,10.40
2021,03,29,14,24,10.40
2021,03,29,14,25,10.40
2021,03,29,14,26,10.40
2021,03,29,14,27,10.50
2021,03,29,14,28,10.60
2021,03,29,14,29,10.70
2021,03,29,14,30,10.70
2021,03,29,14,31,10.70
2021,03,29,14,32,10.70
2021,03,29,14,33,10.80
2021,03,29,14,34,10.90
2021,03,29,14,35,10.90
2021,03,29,14,36,11.00
2021,03,29,14,37,10.90
2021,03,29,14,38,10.90
2021,03,29,14,39,11.00
2021,03,29,14,40,11.10
2021,03,29,14,41,11.10
2021,03,29,14,42,11.00
2021,03,29,14,43,10.90
2021,03,29,14,44,10.80
2021,03,29,14,45,10.70
2021,03,29,14,46,10.60
2021,03,29,14,47,10.60
2021,03,29,14,48,10.60
2021,03,29,14,49,10.50
2021,03,29,14,50,10.40
2021,03,29,14,51,10.40
2021,03,29,14,52,10.40
2021,03,29,14,53,10.50
2021,03,29,14,54,10.50
2021,03,29,14,55,10.50
2021,03,29,14,56,10.60
2021,03,29,14,57,10.70
2021,03,29,14,58,10.70
2021,03,29,14,59,10.80
2021,03,29,15,00,10.80
2021,03,29,15,01,10.70
2021,03,29,15,02,10.70
2021,03,29,15,03,10.60
2021,03,29,15,04,10.60
2021,03,29,15,05,10.60
2021,03,29,15,06,10.60
2021,03,29,15,07,10.50
2021,03,29,15,08,10.50
2021,03,29,15,09,10.50
2021,03,29,15,10,10.50
2021,03,29,15,11,10.60
2021,03,29,15,12,10.50
2021,03,29,15,13,10.50
2021,03,29,15,14,10.60
2021,03,29,15,15,10.70
2021,03,29,15,16,10.70
2021,03,29,15,17,10.70
2021,03,29,15,18,10.80
2021,03,29,15,19,10.80
2021,03,29,15,20,10.70
2021,03,29,15,21,10.60
2021,03,29,15,22,10.60
2021,03,29,15,23,10.60
2021,03,29,15,24,10.70
2021,03,29,15,25,10.70
2021,03,29,15,26,10.70
2021,03,29,15,27,10.60
2021,03,29,15,28,10.50
2021,03,29,15,29,10.40
2021,03,29,15,30,10.40
2021,03,29,15,31,10.50
2021,03,29,15,32,10.50
2021,03,29,15,33,10.50
2021,03,29,15,34,10.50
2021,03,29,15,35,10.40
2021,03,29,15,36,10.30
2021,03,29,15,37,10.20
2021,03,29,15,38,10.20
2021,03,29,15,39,10.10
2021,03,29,15,40,10.10
2021,03,29,15,41,10.10
2021,03,29,15,42,10.10
2021,03,29,15,43,10.20
2021,03,29,15,44,10.30
2021,03,29,15,45,10.40
2021,03,29,15,46,10.40
2021,03,29,15,47,10.40
2021,03,29,15,48,10.40
2021,03,29,15,49,10.30
2021,03,29,15,50,10.30
2021,03,29,15,51,10.30
2021,03,29,15,52,10.30
2021,03,29,15,53,10.30
2021,03,29,15,54,10.40
2021,03,29,15,55,10.40
2021,03,29,15,56,10.50
2021,03,29,15,57,10.50
2021,03,29,15,58,10.60
2021,03,29,15,59,10.70
2021,03,29,16,00,10.70
2021,03,29,16,01,10.70
2021,03,29,16,02,10.70
2021,03,29,16,03,10.60
2021,03,29,16,04,10.50
2021,03,29,16,05,10.30
2021,03,29,16,06,10.00
2021,03,29,16,07,9.90
2021,03,29,16,08,9.80
2021,03,29,16,09,9.80
2021,03,29,16,10,9.70
2021,03,29,16,11,9.70
2021,03,29,16,12,9.70
2021,03,29,16,13,9.70
2021,03,29,16,14,9.80
2021,03,29,16,15,9.80
2021,03,29,16,16,9.80
2021,03,29,16,17,9.80
2021,03,29,16,18,9.90
2021,03,29,16,19,9.90
2021,03,29,16,20,10.00
2021,03,29,16,21,9.90
2021,03,29,16,22,9.90
2021,03,29,16,23,9.90
2021,03,29,16,24,9.90
2021,03,29,16,25,9.90
2021,03,29,16,26,9.90
2021,03,29,16,27,9.90
2021,03,29,16,28,9.80
2021,03,29,16,29,9.90
2021,03,29,16,30,9.90
2021,03,29,16,31,9.90
2021,03,29,16,32,9.90
2021,03,29,16,33,9.90
2021,03,29,16,34,9.90
2021,03,29,16,35,9.80
2021,03,29,16,36,9.80
2021,03,29,16,37,9.80
2021,03,29,16,38,9.80
2021,03,29,16,39,9.80
2021,03,29,16,40,9.80
2021,03,29,16,41,9.80
2021,03,29,16,42,9.80
2021,03,29,16,43,9.80
2021,03,29,16,44,9.80
2021,03,29,16,45,9.80
2021,03,29,16,46,9.80
2021,03,29,16,47,9.70
2021,03,29,16,48,9.80
2021,03,29,16,49,9.80
2021,03,29,16,50,9.80
2021,03,29,16,51,9.90
2021,03,29,16,52,9.90
2021,03,29,16,53,9.90
2021,03,29,16,54,9.90
2021,03,29,16,55,10.00
2021,03,29,16,56,10.00
2021,03,29,16,57,10.00
2021,03,29,16,58,10.00
2021,03,29,16,59,9.90
2021,03,29,17,00,9.90
2021,03,29,17,01,9.80
2021,03,29,17,02,9.80
2021,03,29,17,03,9.80
2021,03,29,17,04,9.80
2021,03,29,17,05,9.80
2021,03,29,17,06,9.80
2021,03,29,17,07,9.80
2021,03,29,17,08,9.80
2021,03,29,17,09,9.90
2021,03,29,17,10,10.00
2021,03,29,17,11,10.00
2021,03,29,17,12,10.10
2021,03,29,17,13,10.20
2021,03,29,17,14,10.20
2021,03,29,17,15,10.30
2021,03,29,17,16,10.30
2021,03,29,17,17,10.40
2021,03,29,17,18,10.40
2021,03,29,17,19,10.50
2021,03,29,17,20,10.50
2021,03,29,17,21,10.50
2021,03,29,17,22,10.50
2021,03,29,17,23,10.50
2021,03,29,17,24,10.60
2021,03,29,17,25,10.60
2021,03,29,17,26,10.50
2021,03,29,17,27,10.50
2021,03,29,17,28,10.50
2021,03,29,17,29,10.50
2021,03,29,17,30,10.50
2021,03,29,17,31,10.50
2021,03,29,17,32,10.50
2021,03,29,17,33,10.50
2021,03,29,17,34,10.40
2021,03,29,17,35,10.50
2021,03,29,17,36,10.60
2021,03,29,17,37,10.70
2021,03,29,17,38,10.80
2021,03,29,17,39,10.80
2021,03,29,17,40,10.80
2021,03,29,17,41,10.80
2021,03,29,17,42,10.80
2021,03,29,17,43,10.70
2021,03,29,17,44,10.70
2021,03,29,17,45,10.70
2021,03,29,17,46,10.60
2021,03,29,17,47,10.60
2021,03,29,17,48,10.60
2021,03,29,17,49,10.50
2021,03,29,17,50,10.50
2021,03,29,17,51,10.50
2021,03,29,17,52,10.50
2021,03,29,17,53,10.50
2021,03,29,17,54,10.40
2021,03,29,17,55,10.40
2021,03,29,17,56,10.30
2021,03,29,17,57,10.30
2021,03,29,17,58,10.30
2021,03,29,17,59,10.30
2021,03,29,18,00,10.30
2021,03,29,18,01,10.30
2021,03,29,18,02,10.30
2021,03,29,18,03,10.30
2021,03,29,18,04,10.30
2021,03,29,18,05,10.30
2021,03,29,18,06,10.30
2021,03,29,18,07,10.40
2021,03,29,18,08,10.30
2021,03,29,18,09,10.30
2021,03,29,18,10,10.30
2021,03,29,18,11,10.30
2021,03,29,18,12,10.30
2021,03,29,18,13,10.30
2021,03,29,18,14,10.30
2021,03,29,18,15,10.30
2021,03,29,18,16,10.30
2021,03,29,18,17,10.40
2021,03,29,18,18,10.30
2021,03,29,18,19,10.30
2021,03,29,18,20,10.30
2021,03,29,18,21,10.20
2021,03,29,18,22,10.20
2021,03,29,18,23,10.10
2021,03,29,18,24,10.20
2021,03,29,18,25,10.20
2021,03,29,18,26,10.20
2021,03,29,18,27,10.20
2021,03,29,18,28,10.30
2021,03,29,18,29,10.30
2021,03,29,18,30,10.30
2021,03,29,18,31,10.20
2021,03,29,18,32,10.20
2021,03,29,18,33,10.10
2021,03,29,18,34,10.10
2021,03,29,18,35,10.00
2021,03,29,18,36,9.90
2021,03,29,18,37,9.90
2021,03,29,18,38,9.90
2021,03,29,18,39,9.80
2021,03,29,18,40,9.80
2021,03,29,18,41,9.70
2021,03,29,18,42,9.70
2021,03,29,18,43,9.60
2021,03,29,18,44,9.60
2021,03,29,18,45,9.60
2021,03,29,18,46,9.60
2021,03,29,18,47,9.50
2021,03,29,18,48,9.40
2021,03,29,18,49,9.30
2021,03,29,18,50,9.30
2021,03,29,18,51,9.20
2021,03,29,18,52,9.10
2021,03,29,18,53,9.10
2021,03,29,18,54,9.00
2021,03,29,18,55,9.00
2021,03,29,18,56,8.90
2021,03,29,18,57,8.90
2021,03,29,18,58,8.80
2021,03,29,18,59,8.80
2021,03,29,19,00,8.80
2021,03,29,19,01,8.70
2021,03,29,19,02,8.70
2021,03,29,19,03,8.60
2021,03,29,19,04,8.60
2021,03,29,19,05,8.50
2021,03,29,19,06,8.50
2021,03,29,19,07,8.40
2021,03,29,19,08,8.40
2021,03,29,19,09,8.40
2021,03,29,19,10,8.40
2021,03,29,19,11,8.40
2021,03,29,19,12,8.40
2021,03,29,19,13,8.40
2021,03,29,19,14,8.40
2021,03,29,19,15,8.40
2021,03,29,19,16,8.40
2021,03,29,19,17,8.40
2021,03,29,19,18,8.40
2021,03,29,19,19,8.40
2021,03,29,19,20,8.40
2021,03,29,19,21,8.40
2021,03,29,19,22,8.40
2021,03,29,19,23,8.40
2021,03,29,19,24,8.30
2021,03,29,19,25,8.30
2021,03,29,19,26,8.30
2021,03,29,19,27,8.30
2021,03,29,19,28,8.30
2021,03,29,19,29,8.30
2021,03,29,19,30,8.20
2021,03,29,19,31,8.20
2021,03,29,19,32,8.20
2021,03,29,19,33,8.10
2021,03,29,19,34,8.10
2021,03,29,19,35,8.10
2021,03,29,19,36,8.10
2021,03,29,19,37,8.10
2021,03,29,19,38,8.10
2021,03,29,19,39,8.10
2021,03,29,19,40,8.10
2021,03,29,19,41,8.10
2021,03,29,19,42,8.10
